This is the latest recevied weather packets stored in our database for station/object SQ7IQO. If no packets are shown the sender has not sent any weather packets the latest 10 day(s).
| Time | Temp. | Humidity | Pressure | Rain* | Wind** | Luminosity | Snow |
|---|---|---|---|---|---|---|---|
| 1787583415 | 20° C | 63% | 1022.7 hPa | 0 mm | 0 m/s | - | - |
| 1787583355 | 20° C | 65% | 1022.7 hPa | 0 mm | 0 m/s | - | - |
| 1787583295 | 20.56° C | 64% | 1022.7 hPa | 0 mm | 0 m/s | - | - |
| 1787583235 | 20° C | 64% | 1022.7 hPa | 0 mm | 0 m/s | - | - |
| 1787583175 | 20° C | 64% | 1022.7 hPa | 0 mm | 0.45 m/s, ° | - | - |
| 1787583115 | 20° C | 64% | 1022.7 hPa | 0 mm | 0.45 m/s, ° | - | - |
| 1787583055 | 19.44° C | 64% | - | 0 mm | 0 m/s | - | - |
| 1787582995 | 19.44° C | 63% | 1022.7 hPa | 0 mm | 0 m/s | - | - |
| 1787582935 | 20° C | 64% | 1022.7 hPa | 0 mm | 0.89 m/s, ° | - | - |
| 1787582875 | 20° C | 63% | 1022.8 hPa | 0 mm | 0 m/s | - | - |
| 1787582815 | 20° C | 68% | 1022.7 hPa | 0 mm | 0.45 m/s, ° | - | - |
| 1787582755 | 19.44° C | 67% | 1022.7 hPa | 0 mm | 0.45 m/s, ° | - | - |
| 1787582695 | 19.44° C | 65% | 1022.8 hPa | 0 mm | 0.89 m/s, ° | - | - |
| 1787582635 | 19.44° C | 66% | 1022.7 hPa | 0 mm | 1.79 m/s, ° | - | - |
| 1787582575 | 19.44° C | 66% | 1022.8 hPa | 0 mm | 0.89 m/s, ° | - | - |
| 1787582515 | 19.44° C | 65% | 1022.7 hPa | 0 mm | 1.79 m/s, ° | - | - |
| 1787582455 | 19.44° C | 66% | 1022.7 hPa | 0 mm | 0.89 m/s, ° | - | - |
| 1787582395 | 20° C | 65% | 1022.7 hPa | 0 mm | 1.34 m/s, ° | - | - |
| 1787582335 | 19.44° C | 66% | 1022.7 hPa | 0 mm | 0.89 m/s, ° | - | - |
| 1787582275 | 18.89° C | 65% | 1022.8 hPa | 0 mm | 0.89 m/s, ° | - | - |
| 1787582215 | 19.44° C | 66% | 1022.7 hPa | 0 mm | 1.79 m/s, ° | - | - |
| 1787582155 | 19.44° C | 66% | 1022.7 hPa | 0 mm | 1.34 m/s, ° | - | - |
| 1787582095 | 19.44° C | 66% | 1022.8 hPa | 0 mm | 1.34 m/s, ° | - | - |
| 1787582035 | 19.44° C | 65% | 1022.8 hPa | 0 mm | 1.79 m/s, ° | - | - |
| 1787581975 | 19.44° C | 66% | 1022.8 hPa | 0 mm | 1.34 m/s, ° | - | - |
* Rain latest hour (hover to see other rain measurements)
** Current wind speed in m/s (hover to see current wind gust speed)